Ravenna, OH

10:42 AM EST on February 23, 2017 (GMT -0500)
Ravenna

Weather History for KPOV - October, 2013

Change the Weather History Date:

Friday, October 11, 2013

  Actual Average (KCAK) Record (KCAK)
Temperature  
Mean Temperature 58 °F -  
Max Temperature 72 °F 61 °F 87 °F (1928)
Min Temperature 43 °F 43 °F 25 °F (1964)
Degree Days  
Heating Degree Days 8    
Growing Degree Days 8 (Base 50)    
Moisture  
Dew Point 47 °F    
Average Humidity 75    
Maximum Humidity 100    
Minimum Humidity 35    
Precipitation  
Precipitation 0.00 in - - ()
Sea Level Pressure  
Sea Level Pressure 30.11 in    
Wind  
Wind Speed 1 mph (ENE)    
Max Wind Speed 9 mph    
Max Gust Speed -    
Visibility 10 miles    
Events      
Averages and records for this station are not official NWS values.
T = Trace of Precipitation, MM = Missing Value Source: NWS Daily Summary

Daily Weather History Graph

Daily Weather History Graph

Search for Another Location

Airport or City:

Trip Planner

Search our weather history database for the weather conditions in past years. The results will help you decide how hot, cold, wet, or windy it might be!

Date:

Astronomy

Oct. 11, 2013 Rise Set
Actual Time 7:32 AM EDT 6:50 PM EDT
Civil Twilight 7:04 AM EDT 7:17 PM EDT
Nautical Twilight 6:32 AM EDT 7:49 PM EDT
Astronomical Twilight 6:00 AM EDT 8:21 PM EDT
Moon 2:15 PM EDT (10/11) No Moon Set
Length of Visible Light 12h 12m
Length of Day
11h 17m
Waxing Crescent, 47% of the Moon is Illuminated
Oct 11
Waxing Crescent
Oct 11
First Quarter
Oct 18
Full
Oct 26
Last Quarter
Nov 3
New

Hourly Weather History & Observations

Time (EDT) Temp. Windchill Dew Point Humidity Pressure Visibility Wind Dir Wind Speed Gust Speed Precip Events Conditions
12:15 AM 47.3 °F - 47.5 °F 100% 30.11 in 10.0 mi Calm Calm - N/A   Clear
12:34 AM 45.7 °F - 45.9 °F 100% 30.11 in 10.0 mi Calm Calm - N/A   Clear
12:55 AM 45.7 °F 44.4 °F 45.9 °F 100% 30.11 in 10.0 mi ENE 3.5 mph - N/A   Clear
1:15 AM 46.8 °F - 46.9 °F 100% 30.10 in 10.0 mi Calm Calm - N/A   Clear
1:35 AM 48.4 °F - 48.6 °F 100% 30.11 in 10.0 mi Calm Calm - N/A   Clear
1:55 AM 48.4 °F - 48.2 °F 99% 30.12 in 10.0 mi Calm Calm - N/A   Clear
2:15 AM 46.0 °F - 46.2 °F 100% 30.11 in 10.0 mi Calm Calm - N/A   Clear
2:35 AM 44.6 °F - 44.6 °F 100% 30.11 in 10.0 mi Calm Calm - N/A   Clear
2:54 AM 46.9 °F - 47.1 °F 100% 30.10 in 10.0 mi Calm Calm - N/A   Clear
3:15 AM 46.9 °F - 47.1 °F 100% 30.10 in 10.0 mi Calm Calm - N/A   Clear
3:35 AM 46.6 °F - 46.6 °F 100% 30.10 in 10.0 mi Calm Calm - N/A   Clear
3:54 AM 46.2 °F - 46.2 °F 100% 30.10 in 10.0 mi Calm Calm - N/A   Clear
4:15 AM 46.4 °F - 46.4 °F 100% 30.10 in 10.0 mi Calm Calm - N/A   Clear
4:35 AM 45.1 °F - 45.1 °F 100% 30.10 in 10.0 mi Calm Calm - N/A   Clear
4:55 AM 43.7 °F - 43.7 °F 100% 30.10 in 10.0 mi Calm Calm - N/A   Clear
5:15 AM 44.4 °F - 44.6 °F 100% 30.11 in 10.0 mi Calm Calm - N/A   Clear
5:35 AM 43.7 °F - 43.9 °F 100% 30.11 in 10.0 mi Calm Calm - N/A   Clear
5:55 AM 43.7 °F - 43.9 °F 100% 30.11 in 10.0 mi Calm Calm - N/A   Clear
6:15 AM 43.3 °F - 43.5 °F 100% 30.11 in 10.0 mi Calm Calm - N/A   Clear
6:35 AM 43.3 °F - 43.3 °F 100% 30.11 in 10.0 mi Calm Calm - N/A   Clear
6:55 AM 44.8 °F - 45.1 °F 100% 30.11 in 10.0 mi Calm Calm - N/A   Clear
7:15 AM 45.7 °F - 45.9 °F 100% 30.11 in 10.0 mi Calm Calm - N/A   Clear
7:35 AM 44.6 °F - 44.6 °F 100% 30.11 in 10.0 mi Calm Calm - N/A   Clear
7:54 AM 44.1 °F - 44.2 °F 100% 30.12 in 10.0 mi Calm Calm - N/A   Clear
8:15 AM 45.0 °F - 45.3 °F 100% 30.12 in 10.0 mi Calm Calm - N/A   Clear
8:35 AM - - - N/A% 30.13 in 10.0 mi Calm Calm - N/A   Clear
8:55 AM - - - N/A% 30.13 in 10.0 mi Calm Calm - N/A   Clear
9:15 AM 52.0 °F - 50.0 °F 93% 30.14 in 10.0 mi Calm Calm - N/A   Clear
9:35 AM 55.9 °F - 52.3 °F 88% 30.14 in 10.0 mi Calm Calm - N/A   Clear
9:54 AM 59.7 °F - 47.8 °F 65% 30.14 in 10.0 mi Calm Calm - N/A   Clear
10:15 AM 61.7 °F - 46.0 °F 56% 30.14 in 10.0 mi Calm Calm - N/A   Clear
10:35 AM 63.5 °F - 46.0 °F 53% 30.14 in 10.0 mi ENE 3.5 mph - N/A   Clear
10:55 AM 64.2 °F - 44.8 °F 49% 30.14 in 10.0 mi ENE 3.5 mph - N/A   Clear
11:15 AM 64.2 °F - 45.7 °F 51% 30.14 in 10.0 mi NE 4.6 mph - N/A   Clear
11:35 AM 65.7 °F - 43.3 °F 44% 30.14 in 10.0 mi ENE 6.9 mph - N/A   Clear
11:55 AM 66.4 °F - 42.3 °F 41% 30.14 in 10.0 mi ENE 6.9 mph - N/A   Clear
12:15 PM 67.1 °F - 43.5 °F 42% 30.14 in 10.0 mi ESE 4.6 mph - N/A   Clear
12:35 PM 67.3 °F - 45.1 °F 45% 30.14 in 10.0 mi East 9.2 mph - N/A   Clear
12:54 PM 67.3 °F - 45.5 °F 45% 30.13 in 10.0 mi East 6.9 mph - N/A   Clear
1:15 PM 68.4 °F - 43.3 °F 40% 30.12 in 10.0 mi ENE 9.2 mph - N/A   Clear
1:35 PM 69.4 °F - 40.5 °F 35% 30.11 in 10.0 mi Calm Calm - N/A   Clear
1:54 PM 70.3 °F - 41.5 °F 35% 30.10 in 10.0 mi North 5.8 mph - N/A   Clear
2:15 PM 70.5 °F - 44.1 °F 39% 30.10 in 10.0 mi NE 5.8 mph - N/A   Clear
2:35 PM 71.4 °F - 46.6 °F 41% 30.09 in 10.0 mi ESE 4.6 mph - N/A   Clear
2:54 PM 72.0 °F - 47.8 °F 42% 30.08 in 10.0 mi East 4.6 mph - N/A   Clear
3:15 PM 71.2 °F - 48.6 °F 45% 30.08 in 10.0 mi ENE 4.6 mph - N/A   Clear
3:35 PM 71.6 °F - 50.5 °F 47% 30.08 in 10.0 mi NE 6.9 mph - N/A   Clear
3:54 PM 71.1 °F - 49.5 °F 46% 30.08 in 10.0 mi East 4.6 mph - N/A   Clear
4:15 PM 71.2 °F - 50.0 °F 47% 30.07 in 10.0 mi Calm Calm - N/A   Clear
4:35 PM 71.2 °F - 50.9 °F 49% 30.07 in 10.0 mi ENE 6.9 mph - N/A   Clear
4:55 PM 70.7 °F - 50.4 °F 48% 30.08 in 7.0 mi East 4.6 mph - N/A   Clear
5:15 PM 70.3 °F - 51.1 °F 50% 30.08 in 1.2 mi NE 6.9 mph - N/A   Haze
5:35 PM 69.8 °F - 52.2 °F 53% 30.08 in 4.0 mi NE 5.8 mph - N/A   Haze
5:55 PM 69.1 °F - 52.2 °F 55% 30.08 in 4.0 mi East 5.8 mph - N/A   Haze
6:15 PM 68.0 °F - 51.1 °F 55% 30.09 in 7.0 mi East 3.5 mph - N/A   Clear
6:35 PM 63.1 °F - 52.5 °F 68% 30.09 in 10.0 mi Calm Calm - N/A   Clear
6:54 PM 63.0 °F - 51.8 °F 67% 30.10 in 10.0 mi Calm Calm - N/A   Clear
7:15 PM 60.6 °F - 53.8 °F 78% 30.10 in 10.0 mi Calm Calm - N/A   Clear
7:35 PM 59.4 °F - 52.2 °F 77% 30.10 in 10.0 mi Calm Calm - N/A   Clear
7:54 PM 59.0 °F - 52.7 °F 80% 30.10 in 10.0 mi ENE 8.1 mph - N/A   Clear
8:15 PM 58.3 °F - 50.4 °F 75% 30.10 in 10.0 mi NE 3.5 mph - N/A   Clear
8:35 PM 57.6 °F - 50.0 °F 76% 30.10 in 10.0 mi NE 3.5 mph - N/A   Clear
8:55 PM 57.4 °F - 49.5 °F 75% 30.10 in 10.0 mi ENE 3.5 mph - N/A   Clear
9:15 PM 57.2 °F - 49.5 °F 75% 30.10 in 10.0 mi Calm Calm - N/A   Clear
9:35 PM 56.3 °F - 49.1 °F 77% 30.10 in 10.0 mi Calm Calm - N/A   Clear
9:55 PM 55.9 °F - 48.6 °F 76% 30.10 in 10.0 mi Calm Calm - N/A   Clear
10:15 PM 55.4 °F - 48.0 °F 76% 30.10 in 10.0 mi Calm Calm - N/A   Clear
10:35 PM 54.3 °F - 47.8 °F 79% 30.10 in 10.0 mi Calm Calm - N/A   Clear
10:54 PM 52.5 °F - 48.9 °F 88% 30.10 in 10.0 mi Calm Calm - N/A   Clear
11:15 PM 51.6 °F - 48.4 °F 89% 30.10 in 10.0 mi Calm Calm - N/A   Clear
11:35 PM 51.8 °F - 48.9 °F 90% 30.10 in 10.0 mi Calm Calm - N/A   Clear
11:54 PM 53.8 °F - 48.2 °F 81% 30.10 in 10.0 mi Calm Calm - N/A   Clear